Bloomington, IN

12:38 PM EST on December 05, 2019 (GMT -0500)
Monroe County

Weather History for KBMG - September, 2019

Change the Weather History Date:

Monday, September 2, 2019

  Actual Average Record
Temperature  
Mean Temperature 70 °F 71 °F  
Max Temperature 80 °F 83 °F 97 °F (2011)
Min Temperature 61 °F 58 °F 50 °F (2017)
Degree Days  
Heating Degree Days 0 0  
Month to date heating degree days 0 0  
Since 1 July heating degree days 0 7  
Cooling Degree Days 6 6  
Month to date cooling degree days 16 12  
Year to date cooling degree days 988 829  
Growing Degree Days 20 (Base 50)    
Moisture  
Dew Point 64 °F    
Average Humidity 90    
Maximum Humidity 100    
Minimum Humidity 58    
Precipitation  
Precipitation 0.00 in 0.10 in 2.55 in (2014)
Month to date precipitation 0.87 0.21  
Year to date precipitation 37.09 33.40  
Sea Level Pressure  
Sea Level Pressure 30.10 in    
Wind  
Wind Speed 1 mph ()    
Max Wind Speed 10 mph    
Max Gust Speed 15 mph    
Visibility 3.4 miles    
Events Fog    
T = Trace of Precipitation, MM = Missing Value Source: Averaged Metar Reports

Daily Weather History Graph

Daily Weather History Graph

Search for Another Location

Airport or City:

Astronomy

Sep. 02, 2019 Rise Set
Actual Time 7:15 AM EDT 8:15 PM EDT
Civil Twilight 6:48 AM EDT 8:43 PM EDT
Nautical Twilight 6:15 AM EDT 9:15 PM EDT
Astronomical Twilight 5:42 AM EDT 9:49 PM EDT
Moon 10:56 AM EDT (9/2) 10:38 PM EDT (9/2)
Length of Visible Light 13h 54m
Length of Day
12h 59m
Waxing Crescent, 15% of the Moon is Illuminated
Sep 2
Waxing Crescent
Sep 5
First Quarter
Sep 14
Full
Sep 21
Last Quarter
Sep 28
New

Hourly Weather History & Observations

Time (EDT) Temp. Heat Index Dew Point Humidity Pressure Visibility Wind Dir Wind Speed Gust Speed Precip Events Conditions
12:03 AM 66.9 °F - 64.9 °F 93% 30.08 in 0.5 mi Calm Calm - N/A Fog Fog
12:12 AM 66.9 °F - 64.9 °F 93% 30.08 in 0.8 mi Calm Calm - N/A   Mist
12:27 AM 66.9 °F - 64.9 °F 93% 30.08 in 1.0 mi Calm Calm - N/A   Mist
12:31 AM 66.9 °F - 64.9 °F 93% 30.08 in 0.8 mi Calm Calm - N/A   Clear
12:53 AM 66.9 °F - 64.9 °F 93% 30.06 in 0.5 mi Calm Calm - N/A Fog Fog
1:00 AM 66.9 °F - 64.9 °F 93% 30.08 in 0.2 mi Calm Calm - N/A Fog Fog
1:23 AM 66.0 °F - 64.0 °F 93% 30.08 in 0.5 mi Calm Calm - N/A Fog Fog
1:38 AM 66.9 °F - 64.9 °F 93% 30.08 in 0.2 mi Calm Calm - N/A Fog Fog
1:46 AM 66.0 °F - 64.9 °F 96% 30.08 in 0.5 mi Calm Calm - N/A Fog Fog
1:53 AM 66.0 °F - 64.0 °F 93% 30.06 in 0.5 mi Calm Calm - N/A Fog Fog
2:47 AM 66.2 °F - 64.4 °F 94% 30.08 in 2.0 mi NW 3.5 mph - N/A   Mostly Cloudy
2:48 AM 66.0 °F - 64.9 °F 96% 30.06 in 2.0 mi NW 3.5 mph - N/A   Mostly Cloudy
2:55 AM 66.9 °F - 64.9 °F 93% 30.08 in 0.8 mi Calm Calm - N/A   Overcast
3:04 AM 64.9 °F - 64.0 °F 97% 30.08 in 0.5 mi Calm Calm - N/A Fog Fog
3:19 AM 64.9 °F - 63.0 °F 93% 30.08 in 0.2 mi Calm Calm - N/A Fog Fog
3:33 AM 64.9 °F - 64.0 °F 97% 30.08 in 0.2 mi Calm Calm - N/A Fog Fog
3:44 AM 66.0 °F - 64.0 °F 93% 30.08 in 0.5 mi Calm Calm - N/A Fog Fog
3:53 AM 64.9 °F - 64.0 °F 97% 30.06 in 0.5 mi Calm Calm - N/A Fog Fog
4:05 AM 64.9 °F - 63.0 °F 93% 30.08 in 0.2 mi Calm Calm - N/A Fog Fog
4:29 AM 64.9 °F - 63.0 °F 93% 30.08 in 0.2 mi Calm Calm - N/A Fog Fog
4:53 AM 63.0 °F - 62.1 °F 97% 30.07 in 0.5 mi Calm Calm - N/A Fog Fog
5:20 AM 64.0 °F - 63.0 °F 96% 30.09 in 0.2 mi NNW 3.5 mph - N/A Fog Fog
5:33 AM 64.0 °F - 63.0 °F 96% 30.09 in 0.5 mi Calm Calm - N/A Fog Fog
5:41 AM 64.9 °F - 64.0 °F 97% 30.09 in 0.2 mi Calm Calm - N/A Fog Fog
5:53 AM 66.0 °F - 64.0 °F 93% 30.07 in 0.2 mi NNW 3.5 mph - N/A Fog Fog
6:33 AM 64.9 °F - 64.0 °F 97% 30.10 in 0.5 mi Calm Calm - N/A Fog Fog
6:49 AM 64.4 °F - 64.4 °F 100% 30.10 in 0.2 mi Calm Calm - N/A Fog Fog
6:53 AM 64.9 °F - 64.0 °F 97% 30.08 in 0.2 mi Calm Calm - N/A Fog Fog
7:53 AM 64.9 °F - 64.0 °F 97% 30.10 in 0.2 mi NNW 3.5 mph - N/A Fog Fog
8:35 AM 66.0 °F - 64.9 °F 96% 30.13 in 0.8 mi NNW 6.9 mph - N/A   Mist
8:43 AM 66.0 °F - 64.9 °F 96% 30.13 in 1.0 mi North 6.9 mph - N/A   Overcast
8:53 AM 66.0 °F - 64.9 °F 96% 30.12 in 1.8 mi North 8.1 mph - N/A   Overcast
8:59 AM 66.9 °F - 64.9 °F 93% 30.13 in 3.0 mi NNW 5.8 mph - N/A   Overcast
9:53 AM 66.9 °F - 64.9 °F 93% 30.13 in 7.0 mi North 8.1 mph - N/A   Overcast
10:45 AM 66.9 °F - 64.0 °F 90% 30.15 in 8.0 mi North 5.8 mph - N/A   Overcast
10:53 AM 69.1 °F - 64.0 °F 84% 30.14 in 10.0 mi North 4.6 mph - N/A   Overcast
11:01 AM 69.1 °F - 64.0 °F 84% 30.16 in 10.0 mi Variable 3.5 mph - N/A   Overcast
11:16 AM 69.1 °F - 64.0 °F 84% 30.15 in 10.0 mi NNW 4.6 mph - N/A   Overcast
11:44 AM 70.0 °F - 64.9 °F 84% 30.16 in 10.0 mi North 4.6 mph - N/A   Overcast
11:53 AM 70.0 °F - 64.0 °F 81% 30.14 in 10.0 mi NNE 4.6 mph - N/A   Overcast
12:34 PM 71.1 °F - 64.0 °F 78% 30.15 in 10.0 mi NNE 3.5 mph - N/A   Overcast
12:53 PM 71.1 °F - 64.0 °F 78% 30.14 in 10.0 mi NNW 3.5 mph - N/A   Overcast
1:53 PM 73.9 °F - 64.0 °F 71% 30.13 in 10.0 mi Variable 3.5 mph - N/A   Overcast
2:53 PM 75.0 °F - 63.0 °F 66% 30.11 in 10.0 mi WNW 5.8 mph - N/A   Overcast
3:53 PM 77.0 °F - 64.0 °F 64% 30.09 in 10.0 mi Variable 4.6 mph - N/A   Mostly Cloudy
4:11 PM 78.1 °F - 64.9 °F 64% 30.11 in 10.0 mi Variable 3.5 mph - N/A   Mostly Cloudy
4:53 PM 78.1 °F - 64.9 °F 64% 30.09 in 10.0 mi Variable 4.6 mph - N/A   Mostly Cloudy
5:53 PM 80.1 °F 81.7 °F 64.0 °F 58% 30.08 in 10.0 mi NNW 4.6 mph - N/A   Mostly Cloudy
6:53 PM 75.0 °F - 64.9 °F 71% 30.08 in 10.0 mi Calm Calm - N/A   Scattered Clouds
7:53 PM 72.0 °F - 66.9 °F 84% 30.08 in 10.0 mi Calm Calm - N/A   Clear
8:53 PM 66.0 °F - 64.9 °F 96% 30.07 in 7.0 mi Calm Calm - N/A   Clear
9:35 PM 64.9 °F - 63.0 °F 93% 30.09 in 0.8 mi Calm Calm - 0.00 in   Clear
9:53 PM 64.9 °F - 64.0 °F 97% 30.07 in 4.0 mi Calm Calm - 0.00 in   Clear
10:02 PM 64.9 °F - 64.0 °F 97% 30.09 in 1.8 mi Calm Calm - N/A   Clear
10:12 PM 64.0 °F - 62.1 °F 93% 30.10 in 0.8 mi Calm Calm - N/A   Clear
10:19 PM 64.9 °F - 64.0 °F 97% 30.10 in 2.5 mi Calm Calm - N/A   Clear
10:26 PM 64.0 °F - 62.1 °F 93% 30.09 in 5.0 mi Calm Calm - N/A   Clear
10:35 PM 64.0 °F - 62.1 °F 93% 30.09 in 1.8 mi Calm Calm - N/A   Clear
10:53 PM 64.0 °F - 62.1 °F 93% 30.08 in 1.5 mi Calm Calm - N/A   Clear
11:04 PM 64.0 °F - 62.1 °F 93% 30.09 in 0.5 mi Calm Calm - N/A Fog Fog
11:19 PM 63.0 °F - 62.1 °F 97% 30.10 in 2.0 mi Calm Calm - N/A   Clear
11:27 PM 64.0 °F - 62.1 °F 93% 30.09 in 3.0 mi Calm Calm - N/A   Clear
11:34 PM 62.1 °F - 61.0 °F 96% 30.09 in 1.5 mi Calm Calm - N/A   Clear
11:41 PM 63.0 °F - 61.0 °F 93% 30.09 in 0.5 mi Calm Calm - N/A Fog Fog
11:53 PM 62.1 °F - 61.0 °F 96% 30.08 in 0.8 mi Calm Calm - N/A   Mist